Location: Dötzum
(52.0808°N, 9.8063°E)
Time: 04:22:19
(UTC+00:00)

ASTEX 1 - Pass Details

Date: 27 May 2022
Orbit: 720 x 742 km, 92.7° (Epoch: 24 June)

Event Time Altitude Azimuth Distance (km) Brightness Sun altitude
Rises 00:08:13 0° 1° (N) 3,150 8.4 -15.8°
Reaches altitude 10° 00:10:35 10° 355° (N) 2,226 7.1 -15.8°
Maximum altitude 00:15:14 45° 284° (WNW) 996 4.1 -15.6°
Enters shadow 00:18:07 21° 223° (SW) 1,584 4.6 -15.5°
